Погода в Рязани

Хотите узнать прогноз погоды в Рязани? Тогда Вам сюда: Погода в Рязани

Поиск расширенной информации на нашем сайте:

Полезная информация:

Новости сайта



02.01.2020
Опубликован Долгосрочный прогноз погоды по городам России и ближнего зарубежья на январь 2020 года.
Карты: Прогноз на январь и февраль 2020 года, Сравнение прогнозируемой аномалии приземной температуры воздуха на январь 2020 года по разным моделям.




Погода в Рязани - сегодня

Время (UTC), дата Ветер
(°,м/с) 
Видим.   Явления Облачность Т
(°С)
Тd
(°С)
f(%) Тe
(°С)
Pmin
(гПа)
dP
(гПа)
Po
(мм)
O2
(г/м3)
Тmin Tmax R s Состояние
почвы
21 22.09.20 250 (З) 20000 м    ясно 
+11.4 +9.6 89 +13  1015.3  0.2  747  287           
00 23.09.20 250 (З) 10 км    ясно 
+9.3 +9 98 +10  1015.9  0.5  748  290           
03 23.09.20 тихо ()   10 км    ясно 
+6.9 +6.6 98 +7  1017.2  1.1  749  293  +6.9        влажная 
06 23.09.20 250 (З) 20000 м    ясно 
+13.4 +11 85 +18  1018.1  1.3  749  286  +6.8         
09 23.09.20 250 (З) 20000 м    ясно 
+19.4 +11.1 59 +23  1017.9  0.2  750  280           
12 23.09.20 280 (З) 20000 м    3/0 верхняя 
[Ci fib]
+22 +11.4 51 +25  1017.1  -0.6  749  277           
15 23.09.20 тихо ()   20000 м    10/0 верхняя 
[Cs]
+16.1 +13.1 82 +22  1017.2  -0.3  749  282    +22.4       
18 23.09.20 130 (ЮВ) 20000 м    6/0 верхняя 
[Cs]
+12.6 +11.1 91 +17  1017.6  0.2  749  286           
21 23.09.20 120 (ЮВ) 20000 м    ясно 
+11.4 +10.3 93 +15  1018.4  0.7  750  288           
00 24.09.20 140 (ЮВ) 20000 м    4/0 средняя 
[Ac trans]
+10.7 +9.7 94 +13  1019  0.5  750  289           
03 24.09.20 170 (Ю) 10 км    8/0 средняя 
[Ac As]
+10 +9.1 94 +11  1019.2  0.2  750  290  +9.8        сухая 
06 24.09.20 190 (Ю) 20000 м    4/0 средняя 
[Ac trans]
+16.4 +11.1 71 +21  1019.3  0.2  751  283  +9.3         
09 24.09.20 190 (Ю) 20000 м    ясно 
+23.1 +10.6 45 +25  1019.2  0.3  751  277           
12 24.09.20 170 (Ю) 20000 м    ясно 
+24.2 +7.7 35 +24  1019  0.1  751  277           
15 24.09.20 140 (ЮВ) 20000 м    ясно 
+17.3 +11.8 70 +23  1019.4  0.1  751  282    +24.3       
18 24.09.20 130 (ЮВ) 20000 м    ясно 
+13.9 +9.3 74 +15  1019.9  0.3  751  286           
21 24.09.20 130 (ЮВ) 20000 м    ясно 
+10.8 +8.4 85 +12  1020.8  0.7  751  290           
00 25.09.20 120 (ЮВ) 20000 м    ясно 
+11.3 +7.5 77 +12  1020.9  0.1  751  289           
03 25.09.20 140 (ЮВ) 20000 м    ясно 
+10.1 +6.5 78 +11  1020.9  -0.1  751  291  +9.7        сухая 
06 25.09.20 160 (Ю) 20000 м    1/0 верхняя 
[Ci fib]
+13.3 +7.5 68 +14  1020.9  0.3  752  288  +9.7         
09 25.09.20 140 (ЮВ) 20000 м    9/0 верхняя 
[Ci fib]
+20.7 +8.8 46 +21  1020.8  0.4  752  280           
12 25.09.20 150 (ЮВ) 20000 м    9/0 верхняя 
[Ci fib]
+22.8 +6.9 36 +23  1020.4  -0.3  752  278           
15 25.09.20 140 (ЮВ) 20000 м    9/0 верхняя 
[Ci fib]
+18.5 +8.2 51 +20  1020.3  -0.3  751  282    +23.2       
18 25.09.20 140 (ЮВ) 20000 м    1/0 верхняя 
[Ci fib]
+15.5 +8 61 +16  1021.1  0.5  752  285           
21 25.09.20 140 (ЮВ) 20000 м    ясно 
+14.2 +7.1 62 +15  1021.2  752  287           
Время (UTC), дата Ветер
(°,м/с) 
Видим.   Явления Облачность Т
(°С)
Тd
(°С)
f(%) Тe
(°С)
Pmin
(гПа)
dP
(гПа)
Po
(мм)
O2
(г/м3)
Тmin Tmax R s Состояние
почвы

Для получения пояснительной информации подведите курсор к названию столбца.

ПОГОДА в Рязани - архив

Всё, что Вы хотите узнать о погоде в Рязани - удобно и подробно!

Выберите нужную дату (начиная с 1 января 2019* года) и нажмите кнопку "Найти".
Будут отображены архивные сводки погоды по пункту Рязань, начиная с указанной даты.


Отображать данные в формате CSV (для использования в таблицах Excel)


Внимание! Наш архив погоды предназначен исключительно для личного некоммерческого использования в познавательных целях. Если Вам необходимы официальные справки о состоянии погоды (для производственных, юридических, коммерческих и т.п. целей), обращайтесь в органы Росгидромета.

*Примечание: данная дата относится к архиву по метеостанциям СССР (Россия, СНГ, Балтия).
Архив по метеостанциям Зарубежной Европы и Азии (кроме Китая) хранится 10 дней, по другим регионам земного шара (Китай, Африка, Америка, Австралия, Океания) - 1 день.

Рязань - район местоположения метеостанции


Название, широта, долгота, высота метеостанции:
Рязань 54.6°ш. 39.7°д. 158 м над ур. моря [Российская Федерация]

Дополнительная информация

В oтличие oт бoльшинства пoгoдных сайтoв мы публикуем пoдрoбную метеoинфoрмацию в детальнoм прoфессиoнальнoм фoрмате.

Характеристики температуры и влажнoсти вoздуха измеряются на высoте 2 м в тени вдали oт зданий и деревьев.
Скoрoсть ветра измеряется на высoте 10 м (на урoвне рoста челoвека скoрoсть ветра ниже в 1.5-2 раза). Если метеoстанция нахoдится в гoрoде или в лесу, тo скoрoсть ветра занижена на 2-4 м/с пo сравнению с oткрытым местoм. Скoрoсть ветра над акватoриями крупных рек и oзёр, а также на вершинах хoлмoв на 2-5 м/с выше, чем в oбычных услoвиях.
Атмoсфернoе давление в разных тoчках местнoсти мoжет значительнo oтличаться oт давления на метеoстанции, в зависимoсти oт услoвий рельефа (при пoдъёме на 10 м давление пoнижается примернo на 1 мм рт.ст.).